Wind_Speed
21 21 21 21 21 21 21 21 21 21 21 21 22 22 23 23 24 24 24 23 23 23 23 22 22 20 21 21 20 21 22 23 23 22 21 21 22 21 21 20 18 18 20 18 14 12 11 12 12 12 11 7 6 4 7 7 2 1 3 4 6 6 7 7 6 6 5 4 6 6 7 7 7 5 1 2 1 2 4 4 5 6 7 10 15 20 22 22
21 21 22 22 22 22 22 22 22 22 22 21 22 22 23 23 24 24 24 24 23 23 23 22 22 21 20 20 20 20 22 24 23 24 28 28 25 23 22 24 23 21 20 18 14 12 10 9 9 10 8 6 5 6 7 6 6 4 2 4 7 7 7 8 10 8 7 6 9 7 6 6 8 9 4 4 5 5 5 5 6 7 9 11 15 19 21 21
22 22 22 22 22 22 22 23 23 22 22 22 22 23 23 23 24 24 24 24 23 23 23 22 22 21 20 19 18 19 20 22 19 22 30 31 30 28 26 28 27 23 21 19 16 14 12 11 11 8 6 7 6 7 8 7 7 6 5 6 8 8 9 11 13 10 8 6 7 9 5 3 6 9 4 5 7 8 7 5 8 8 9 10 11 16 19 20
22 22 22 22 22 22 22 23 23 23 23 22 22 23 23 24 24 24 24 24 24 23 23 22 21 21 21 18 17 16 16 16 12 14 19 19 24 27 29 30 29 25 21 20 19 17 16 13 11 8 6 7 7 9 10 8 6 6 8 9 8 9 10 11 13 11 9 9 4 7 6 3 5 6 5 6 6 7 8 8 9 9 12 13 11 14 17 17
22 22 22 22 22 22 22 22 23 23 23 23 23 23 24 24 24 24 24 24 23 23 23 22 21 20 20 17 16 14 9 8 2 1 5 7 12 20 26 28 29 25 19 18 19 18 16 12 8 7 6 7 8 9 10 11 7 6 10 11 11 12 10 10 11 9 7 8 7 3 6 5 4 4 5 7 7 4 4 7 11 10 12 16 14 13 14 13
23 23 22 22 22 22 22 22 23 23 24 24 24 24 24 24 24 25 24 24 23 22 22 21 20 19 19 17 16 12 7 6 1 8 9 9 8 9 18 23 25 23 19 18 16 15 13 10 8 6 5 6 10 10 10 12 10 7 9 11 14 14 12 13 8 4 7 10 11 6 4 4 5 5 5 7 7 3 5 1 6 6 11 17 15 13 12 12
23 23 22 22 22 22 22 22 23 23 24 24 24 24 24 24 24 25 25 25 23 22 22 21 20 18 17 16 14 12 9 11 18 13 13 14 12 11 8 15 19 19 19 20 17 14 10 10 10 7 6 6 9 12 11 12 13 11 9 10 14 14 15 15 6 1 5 10 11 7 3 5 7 6 6 8 7 4 8 7 7 9 12 16 13 11 12 12
23 24 23 23 22 22 22 23 23 24 24 24 25 25 25 24 24 24 24 25 23 22 21 20 19 17 15 14 11 10 9 18 31 26 19 17 11 12 4 6 11 16 20 22 18 14 10 11 11 7 8 8 8 11 11 11 13 14 12 10 11 12 13 13 8 6 8 7 8 6 7 7 6 5 5 8 8 5 7 7 7 7 9 11 11 11 10 11
23 23 23 23 23 22 22 23 23 24 25 25 26 26 26 25 24 23 22 23 23 22 20 18 19 17 15 13 9 8 14 22 27 22 16 13 7 6 3 3 10 15 18 21 19 15 10 8 11 9 8 8 9 11 12 11 11 12 13 11 11 12 11 11 12 13 10 6 5 7 8 8 5 3 5 8 8 6 8 8 7 7 6 7 9 10 9 10
22 23 23 23 23 22 22 23 24 26 26 26 26 26 26 26 24 23 22 21 22 21 20 18 18 17 15 13 9 9 15 18 19 19 18 15 9 6 5 3 10 14 14 16 17 16 10 8 8 6 7 6 8 10 12 12 9 9 12 13 13 13 11 10 12 14 10 7 6 9 9 8 7 4 5 7 5 5 6 9 8 7 7 7 7 8 9 9
22 22 23 23 23 23 23 24 25 26 26 26 27 25 25 26 24 23 22 20 20 20 18 18 17 16 15 11 9 10 7 7 12 13 14 17 13 9 7 5 6 9 11 11 14 15 13 13 8 4 4 4 6 9 10 12 10 9 12 13 14 13 11 13 12 11 8 6 10 10 10 9 9 8 7 6 5 7 7 7 9 8 7 7 7 7 7 7
21 22 23 23 23 23 23 24 25 26 26 26 26 25 24 25 24 23 23 20 19 19 16 16 15 14 14 9 12 19 13 8 12 10 6 13 13 8 8 9 8 8 8 8 11 15 16 15 10 4 4 3 4 6 7 10 10 10 12 11 11 11 13 16 15 11 9 6 7 8 9 11 11 10 9 8 7 8 10 9 8 8 7 7 7 7 7 7
22 22 23 23 23 23 24 25 25 26 26 26 26 24 23 24 23 23 22 20 20 18 16 14 14 13 10 7 15 25 23 18 18 15 10 9 9 8 7 9 12 12 10 8 9 10 14 15 9 6 6 4 3 2 5 7 7 9 10 8 7 8 12 15 14 13 12 9 7 6 7 11 10 11 11 9 9 9 10 10 9 8 7 7 7 7 7 7
22 22 23 24 24 23 25 25 26 27 26 26 26 24 23 23 23 22 20 19 18 17 14 13 13 10 5 9 18 22 20 18 18 20 20 15 12 9 7 8 12 15 14 12 10 7 9 12 9 6 7 6 4 6 6 5 5 7 7 6 6 7 10 12 12 14 13 9 9 9 8 9 8 11 14 11 10 11 10 8 8 8 7 7 7 7 7 8
23 23 23 24 25 25 25 26 27 28 28 26 25 23 21 21 21 20 17 15 15 14 12 10 10 6 4 10 17 18 17 18 20 23 21 19 16 10 8 8 9 15 17 15 12 8 6 8 6 5 5 6 5 5 3 3 4 6 6 7 7 8 8 9 12 15 14 9 11 13 8 7 8 9 13 13 12 13 12 10 8 8 8 8 7 7 7 8
23 23 23 24 25 25 25 27 28 29 29 26 24 22 20 19 19 17 14 12 12 11 7 7 6 6 4 7 8 9 9 14 23 25 21 21 20 14 10 7 8 11 14 16 13 7 5 5 4 4 5 5 6 4 3 3 5 5 7 8 9 10 8 7 10 14 15 11 12 16 9 3 6 9 11 12 15 16 15 14 12 10 10 9 7 7 7 7
22 23 24 24 25 25 25 27 28 29 28 26 24 20 18 17 15 12 11 10 10 9 6 6 3 3 5 7 7 8 7 10 16 20 20 22 22 19 12 6 7 9 11 14 13 7 5 4 2 3 4 5 5 6 5 7 7 6 7 8 9 11 9 8 9 11 15 15 14 16 13 7 5 7 11 12 14 17 15 14 14 12 10 9 7 7 7 7
23 23 24 24 25 26 26 27 29 29 29 27 22 19 18 16 14 10 8 7 6 5 7 6 2 0 5 7 7 7 7 10 11 14 17 19 20 19 14 7 5 6 7 9 10 8 5 4 4 4 5 6 6 8 8 10 11 9 9 8 8 10 11 11 10 9 14 17 16 14 14 13 10 9 10 10 10 12 13 13 13 12 12 10 9 8 7 8
23 23 24 25 26 28 28 29 30 29 30 28 21 19 18 14 10 7 4 3 2 3 4 3 5 3 3 3 4 4 7 10 8 12 14 16 16 15 13 7 2 3 5 5 7 9 6 4 5 6 7 9 11 12 13 12 12 12 11 10 10 9 10 11 8 8 12 14 15 15 12 12 13 12 12 9 7 9 10 11 10 11 11 9 9 8 8 8
23 24 26 26 28 29 30 31 30 29 31 27 20 17 12 7 5 2 2 3 6 8 9 5 7 8 7 4 3 1 5 8 5 9 12 14 16 13 9 6 4 4 5 5 7 8 7 5 6 8 10 14 16 16 15 13 11 12 12 11 11 10 9 10 8 7 10 9 11 15 14 13 14 14 13 11 10 10 9 10 10 10 9 8 9 9 9 9
24 25 26 27 28 29 31 31 30 29 27 21 15 11 6 5 4 3 4 6 11 14 14 12 11 12 11 11 8 2 3 3 3 8 12 9 10 11 7 7 6 6 6 8 6 6 8 7 9 12 13 14 15 15 14 13 14 14 10 8 9 10 8 9 9 7 9 8 8 11 14 15 14 13 13 13 13 12 10 10 10 11 10 8 9 10 9 8
25 25 26 27 27 29 31 31 30 26 20 15 11 8 6 5 3 3 3 6 11 13 14 15 15 13 13 15 13 2 3 1 4 7 7 3 5 8 7 9 9 7 7 8 6 5 9 9 12 15 13 13 13 15 16 15 15 13 8 7 8 8 7 8 10 8 7 6 6 9 12 12 13 13 13 13 13 13 12 11 11 11 12 10 9 9 8 8
25 25 26 26 27 30 31 31 28 18 12 14 13 10 9 7 5 4 4 5 10 11 11 12 13 12 11 13 13 8 5 4 5 5 5 5 3 7 7 8 10 8 8 9 7 5 6 9 13 14 12 13 14 14 16 15 12 10 8 8 7 6 6 5 7 8 7 6 4 5 7 7 9 11 13 13 12 11 12 14 13 11 12 12 11 9 8 9
25 25 25 26 28 29 31 32 21 11 13 17 12 9 11 9 6 6 4 5 7 7 10 12 11 9 9 10 9 10 8 6 6 4 9 9 2 3 6 7 9 9 8 11 11 7 6 7 10 12 13 15 15 13 13 11 9 10 10 9 7 6 7 4 4 5 6 7 5 2 4 6 7 9 10 11 12 12 13 15 14 12 11 10 11 11 10 10
24 25 25 27 27 29 33 27 12 12 20 16 8 10 11 8 7 6 4 4 5 4 5 7 7 5 8 9 9 8 6 7 8 5 10 12 6 2 4 5 6 8 10 13 12 8 9 9 6 10 14 15 13 11 12 10 8 10 12 12 10 8 8 7 5 4 5 7 6 6 5 7 7 10 10 7 9 12 12 14 15 13 12 10 10 11 11 10
25 25 26 27 27 30 27 14 9 19 20 8 8 12 11 8 8 6 3 3 4 1 3 1 3 2 4 4 7 4 4 7 10 10 12 13 9 4 2 3 2 7 9 9 7 4 7 9 8 10 13 13 13 11 12 12 8 7 9 12 14 11 9 9 8 5 4 5 4 7 7 7 5 9 11 9 11 13 12 14 16 13 12 12 10 9 9 9
26 26 27 28 28 28 20 11 15 19 11 6 12 13 10 9 9 6 2 3 4 2 2 2 2 2 3 3 3 5 2 2 4 10 11 12 9 4 1 3 2 4 4 3 4 3 5 9 9 11 12 9 10 10 11 12 9 7 6 9 13 14 13 10 7 6 4 2 4 5 6 7 6 7 9 12 15 17 17 16 15 14 13 13 11 10 9 8
26 27 27 27 28 27 20 17 17 14 10 12 16 13 9 9 8 5 2 2 3 3 1 1 3 3 2 4 1 6 3 3 1 3 6 13 10 5 3 7 5 4 3 2 5 5 7 10 12 14 11 7 8 9 10 12 10 7 5 4 7 12 14 11 6 5 4 2 5 6 4 5 8 6 7 11 15 17 19 19 17 15 15 14 13 12 12 11
27 28 27 29 29 24 17 15 14 15 16 15 13 11 8 7 6 2 1 3 2 2 1 1 4 3 1 3 1 7 7 4 2 4 2 11 8 3 3 7 7 6 5 4 6 5 3 3 5 8 9 7 10 11 10 12 10 7 3 2 4 4 7 7 6 4 4 5 7 8 6 5 8 6 7 9 12 13 13 14 15 15 15 14 14 14 14 12
28 28 28 30 27 19 14 13 12 13 13 10 8 7 5 5 3 1 3 2 1 1 1 1 4 4 1 0 3 7 8 7 3 1 2 2 4 4 1 1 2 4 4 3 6 8 7 3 2 2 5 4 5 8 9 10 10 6 4 2 3 1 2 1 2 1 4 9 10 10 10 8 9 7 8 9 10 10 10 10 12 13 14 15 14 14 14 13
30 30 30 29 23 15 12 11 8 10 9 5 4 3 2 2 1 1 3 1 1 2 1 2 3 4 4 4 4 3 6 7 3 3 1 0 2 3 2 1 2 0 3 4 5 8 8 6 2 2 4 1 3 4 8 9 8 6 4 4 6 2 3 2 2 1 3 8 9 12 13 12 12 9 7 8 10 11 11 12 13 13 13 13 13 13 14 13
31 33 29 23 16 11 9 10 10 13 9 3 2 1 1 1 2 3 3 1 1 2 2 4 3 3 5 7 5 3 3 5 5 4 3 3 3 3 4 4 2 1 3 4 5 6 6 7 7 5 5 5 1 1 5 6 4 6 5 6 6 4 2 3 4 3 4 6 7 10 12 12 14 12 7 7 8 10 10 10 12 14 13 12 11 12 12 12
34 32 24 16 11 8 9 11 11 10 5 1 1 1 1 2 2 1 2 2 2 2 3 4 5 3 2 3 3 2 2 2 4 4 1 2 4 4 6 6 5 3 3 3 5 4 4 7 9 8 4 5 6 2 3 3 3 8 8 7 8 7 6 8 7 5 7 8 7 9 9 8 11 10 9 13 12 9 7 5 6 10 11 10 10 10 9 9
34 27 18 13 9 7 8 8 7 5 1 0 1 1 1 3 2 0 1 2 2 4 4 3 6 5 2 2 1 2 1 1 1 4 2 1 4 4 5 7 8 5 2 2 3 2 5 6 7 9 6 8 11 10 7 4 4 8 9 7 8 7 7 7 7 7 8 8 7 8 7 6 8 5 7 14 16 13 13 10 6 4 5 6 7 8 8 8
30 21 15 11 7 6 7 4 3 3 3 2 1 2 2 3 2 2 2 3 3 5 6 5 6 5 3 3 2 3 1 1 1 1 2 3 4 3 3 6 8 7 4 3 3 2 5 6 3 9 10 11 12 12 10 5 4 5 5 6 7 7 7 6 6 6 6 6 5 6 4 4 7 6 3 7 9 14 19 16 9 6 4 4 6 7 7 7
24 18 13 8 7 8 7 2 2 5 4 2 2 3 3 3 2 2 3 4 4 6 8 8 5 3 3 2 1 3 2 2 1 1 2 2 3 4 5 5 5 9 7 4 4 2 4 5 2 6 9 11 12 12 13 9 4 1 3 7 7 6 6 7 7 4 5 7 5 6 6 7 8 10 9 10 7 8 12 12 12 11 8 7 7 7 7 7
19 17 12 7 8 8 5 1 4 5 2 2 3 3 2 2 2 2 4 6 6 6 6 5 3 2 3 3 3 3 2 1 2 2 2 2 2 4 4 6 6 9 10 7 5 3 3 7 5 4 7 8 9 11 14 15 9 4 4 7 7 4 1 2 5 5 6 8 5 8 11 10 8 7 8 13 14 11 9 8 9 10 10 9 8 7 7 8
16 15 10 5 7 6 2 1 4 4 1 1 4 4 0 0 2 3 5 6 6 6 3 2 2 3 3 3 4 4 2 1 2 2 2 2 1 1 1 4 5 7 9 8 6 3 2 7 9 6 7 6 3 5 9 13 12 5 3 4 4 4 3 3 4 5 7 7 6 9 12 10 10 7 4 11 16 17 17 13 9 10 12 11 9 8 9 9
13 10 3 2 7 6 0 3 4 2 1 2 4 4 0 1 4 4 5 6 5 5 3 2 1 2 3 3 4 6 4 3 2 2 2 0 1 3 1 1 2 6 5 2 4 4 1 3 7 4 5 2 0 1 4 7 7 1 2 1 2 1 3 5 4 5 6 7 7 8 10 9 8 8 6 9 12 14 16 15 13 13 12 12 11 9 9 10
8 5 1 5 9 5 2 4 3 1 2 2 3 2 1 2 3 3 4 4 3 2 3 3 2 2 3 2 3 4 3 4 4 1 1 0 2 6 3 1 2 4 3 1 3 5 2 3 6 3 1 0 1 3 5 8 7 3 2 4 4 2 2 2 3 4 5 6 6 7 9 7 5 6 9 12 13 11 11 12 13 13 12 13 13 12 11 12
6 2 2 7 9 2 5 3 1 1 2 3 3 2 1 2 3 4 5 3 2 3 3 4 5 4 4 3 4 4 2 3 3 2 2 2 2 2 2 1 1 2 1 1 1 2 2 3 6 6 2 3 5 5 5 5 5 5 5 6 7 7 5 3 4 4 4 5 6 6 9 7 3 3 7 10 11 10 10 11 10 11 13 13 12 12 13 12
3 1 2 8 8 0 3 1 2 1 2 3 2 1 2 3 2 3 4 3 3 3 3 3 5 5 4 4 3 3 3 3 3 3 2 4 5 4 4 3 1 2 2 3 4 1 2 2 5 7 6 7 8 5 4 4 2 4 4 4 6 7 7 8 7 4 5 6 6 7 9 6 3 3 4 4 4 3 6 10 9 10 12 11 10 11 11 10
2 4 7 8 5 0 2 3 2 3 3 1 1 1 3 3 2 3 4 2 2 3 2 2 3 4 3 3 3 3 3 2 5 5 4 5 5 6 8 7 3 1 2 3 4 1 3 1 3 5 5 7 8 4 4 4 2 3 3 2 4 6 7 10 8 5 5 7 6 7 9 7 4 4 5 3 2 4 2 3 6 8 8 9 10 11 9 8
3 5 5 4 1 1 2 2 2 3 2 3 3 3 4 3 2 3 3 3 3 2 3 4 4 3 2 3 3 2 2 2 4 6 5 6 5 5 6 4 2 1 2 2 3 2 0 2 2 3 5 5 5 3 2 1 1 4 5 6 6 7 9 9 5 5 6 6 7 8 7 6 4 5 6 4 4 4 6 5 2 4 6 7 8 9 9 8
4 3 2 2 1 2 1 2 3 4 5 6 6 6 6 4 3 5 6 5 5 4 3 5 5 5 4 4 3 3 4 4 3 4 5 6 4 4 5 4 4 4 4 4 1 3 1 2 2 1 5 5 4 3 2 3 3 4 5 8 10 11 12 9 5 6 6 6 8 8 6 5 5 6 9 7 6 4 2 4 4 2 2 4 6 8 9 8
3 1 1 1 1 1 2 1 2 3 4 6 5 5 5 4 4 5 4 4 6 5 4 5 5 6 6 5 4 4 5 6 5 5 6 6 5 3 4 5 5 5 5 3 4 3 1 2 3 5 6 7 8 9 10 9 6 6 8 10 10 12 15 11 7 8 7 6 10 10 8 9 9 10 9 7 7 8 5 3 4 3 3 2 3 5 7 7
1 2 2 2 1 1 2 1 3 3 4 5 4 3 6 7 7 4 1 2 4 3 2 4 4 5 5 5 5 4 4 5 6 7 8 9 8 7 7 8 8 9 8 4 7 4 1 4 6 9 10 12 12 13 14 12 9 11 13 12 10 10 11 12 11 10 7 7 10 10 9 12 13 13 12 9 7 7 7 7 7 6 6 6 5 5 7 7
1 2 2 2 2 1 1 2 5 5 6 6 4 4 7 8 8 6 2 2 3 1 1 3 4 6 7 6 6 5 3 4 5 7 7 7 7 7 7 8 9 10 9 5 5 4 2 5 8 8 11 13 12 12 13 11 11 12 13 14 13 12 11 12 13 13 11 10 10 9 11 13 11 11 12 10 9 9 7 6 5 6 6 7 9 9 8 8
3 2 1 1 2 3 4 6 7 7 6 6 4 5 7 8 8 6 4 3 3 1 2 5 6 8 9 8 6 5 5 5 5 5 4 5 6 5 5 7 7 8 7 5 4 3 2 5 8 8 10 13 12 13 13 12 12 13 14 15 14 13 13 13 13 14 14 14 14 14 19 18 12 11 14 14 13 13 12 10 9 8 7 7 9 10 9 9
2 1 2 3 3 4 5 6 6 6 5 5 5 5 7 6 6 7 6 5 6 5 4 7 8 9 10 9 7 6 7 7 9 9 7 8 7 5 4 5 4 4 2 2 3 2 3 5 6 4 6 11 11 12 13 12 13 14 15 14 13 13 13 13 12 11 12 13 13 16 20 18 12 13 17 17 16 15 16 16 15 12 9 7 7 8 10 10
3 2 1 2 3 3 4 4 4 4 4 4 3 3 5 5 7 10 8 6 8 7 5 8 12 11 10 10 9 10 10 9 11 12 10 9 9 7 5 4 3 4 3 1 2 2 4 4 3 1 4 9 10 10 12 11 11 13 13 13 13 12 10 10 10 10 11 12 13 14 14 12 10 12 16 17 17 18 19 19 17 13 9 7 7 7 9 10
5 3 2 1 3 3 3 3 3 4 3 2 4 5 5 6 8 8 7 5 5 7 8 11 12 10 10 12 13 12 11 11 12 12 9 9 11 11 9 8 8 8 6 4 3 3 4 3 2 2 4 8 11 10 10 8 7 9 10 11 14 14 13 13 12 12 13 12 11 11 10 10 12 13 14 16 18 18 17 16 15 13 12 10 10 10 10 11
Wind_Direction
334 333 332 331 330 329 326 324 323 320 319 318 317 316 315 313 310 307 305 302 301 300 299 298 298 299 298 297 300 303 304 304 300 288 269 260 259 257 262 268 265 261 272 289 294 288 284 272 253 240 240 223 215 207 220 224 151 274 243 234 240 229 231 245 243 228 233 185 149 169 177 174 158 160 173 134 208 170 149 155 124 97 91 105 119 126 132 140
334 332 331 330 329 328 327 324 322 320 318 317 316 315 314 312 309 306 305 302 300 299 297 297 296 296 297 297 298 303 306 303 296 282 271 269 265 259 257 259 260 258 261 273 275 268 262 260 252 235 228 217 209 197 203 189 152 179 228 247 238 235 240 246 250 241 241 201 154 159 189 203 167 157 161 163 187 191 170 171 155 126 110 118 127 131 138 145
335 333 331 329 329 327 326 324 321 320 318 317 315 313 313 312 310 306 303 301 299 297 296 295 295 295 295 295 298 304 307 305 294 278 276 275 268 257 249 249 256 258 252 254 259 260 260 266 278 273 236 221 215 204 204 185 172 181 193 235 238 244 255 254 257 254 261 247 163 146 166 212 164 148 153 183 188 186 196 189 173 169 146 141 143 142 147 153
337 334 331 330 329 327 325 323 321 320 317 316 315 313 312 310 309 307 303 301 297 295 294 293 294 293 292 294 297 301 309 305 284 273 276 271 264 255 247 245 248 251 244 245 254 262 269 272 281 282 247 225 215 215 215 197 187 188 194 220 233 244 256 255 259 261 270 272 219 136 141 195 158 141 158 186 199 186 200 200 181 186 163 154 154 152 157 159
338 335 333 331 329 327 325 324 321 319 317 316 315 314 312 310 309 308 304 300 297 294 292 292 292 290 292 292 294 299 302 292 268 22 298 271 264 246 240 243 243 241 234 240 251 254 263 267 265 262 251 228 213 216 219 208 200 210 211 215 227 241 256 263 266 279 305 304 280 171 150 187 159 154 180 191 212 190 204 204 183 187 167 157 157 156 160 161
339 337 335 331 329 327 326 325 322 320 319 317 315 313 312 310 308 307 305 301 296 292 290 290 289 288 290 290 293 287 253 259 13 58 14 352 343 264 234 234 235 231 226 233 243 242 241 241 241 237 236 225 218 219 217 210 205 220 225 214 222 232 245 262 274 307 322 314 285 248 166 176 165 176 203 210 218 133 48 56 146 136 136 146 150 154 163 165
341 338 335 333 331 329 327 325 323 322 320 317 315 313 311 310 308 306 304 300 295 291 287 287 288 286 288 289 288 273 238 255 259 267 316 329 352 339 259 227 228 222 220 226 228 230 222 215 223 221 225 229 222 223 222 218 214 222 229 220 224 225 231 247 258 189 251 278 283 276 253 212 185 183 191 209 226 133 81 65 76 84 115 136 145 157 168 170
341 339 336 334 332 330 329 326 325 322 319 317 315 314 311 309 307 306 303 300 294 290 285 282 283 282 286 285 275 263 242 250 254 260 286 290 316 346 317 213 211 202 208 219 221 224 218 213 217 215 223 228 227 225 223 226 224 226 228 226 231 231 231 237 238 206 204 245 286 290 278 257 215 204 202 205 218 175 116 101 94 95 121 138 150 165 172 173
341 339 338 335 332 330 329 327 326 323 320 318 316 314 311 308 306 304 302 299 294 290 286 282 282 281 279 272 260 255 251 251 257 262 268 268 294 344 343 214 199 189 199 214 223 228 225 216 214 218 232 235 239 232 223 225 223 223 228 230 233 237 238 231 230 225 204 197 269 277 265 268 263 246 248 228 212 180 135 129 130 128 146 154 156 168 175 175
340 340 340 337 334 332 330 328 326 323 322 320 317 314 311 309 306 303 300 297 294 289 285 280 278 279 271 259 250 253 260 259 259 256 248 248 256 272 318 285 203 195 203 212 221 231 234 234 225 235 263 261 253 243 228 228 224 217 227 236 235 237 244 240 234 235 228 185 194 250 248 250 259 237 241 240 219 206 155 147 155 153 167 178 169 172 175 178
340 341 342 340 336 334 332 330 328 325 322 320 317 314 311 309 304 302 300 294 292 288 285 281 274 276 270 255 244 246 260 263 261 260 243 237 239 250 281 282 225 213 220 218 222 233 241 252 269 291 264 253 264 265 250 243 243 226 226 238 239 237 246 252 248 237 243 207 182 221 245 240 239 229 227 230 221 225 214 180 166 171 180 183 184 179 174 179
340 341 342 341 338 335 333 332 332 328 323 319 317 314 310 307 301 301 300 292 288 280 277 280 273 274 275 263 242 242 246 257 273 297 259 226 223 235 252 252 259 251 241 236 230 235 245 262 289 291 248 241 242 260 274 266 256 235 225 234 240 239 242 244 246 232 223 225 191 202 244 239 226 225 223 222 226 225 226 216 187 183 188 188 191 180 177 181
341 340 340 341 339 337 334 333 333 330 325 319 316 315 310 305 301 301 300 293 288 278 268 269 268 273 277 263 250 248 251 259 271 283 271 241 225 229 244 248 256 254 250 257 251 243 246 260 282 287 281 271 227 264 307 286 255 235 227 228 235 238 239 233 235 236 219 211 197 190 235 239 220 217 220 217 223 234 235 222 205 195 190 193 197 179 176 183
342 341 340 340 340 338 335 334 333 331 327 321 317 314 309 304 302 302 300 294 289 279 268 263 264 271 266 258 264 264 261 261 267 264 256 255 251 243 243 247 252 249 248 253 263 278 267 261 263 279 287 255 265 330 314 275 230 223 219 221 227 230 235 224 219 231 225 199 189 205 237 241 220 205 211 210 208 229 243 230 218 207 195 195 197 189 179 180
341 342 341 339 340 339 336 334 334 333 329 323 317 313 307 304 304 302 298 293 289 282 278 274 262 253 270 269 270 273 262 251 253 252 247 245 244 241 233 239 255 249 243 242 245 264 280 272 252 253 274 243 253 302 292 248 228 211 210 214 217 227 234 220 212 218 222 202 186 211 238 236 231 215 207 204 196 213 231 228 224 219 210 202 197 198 190 180
340 341 341 340 340 339 336 334 335 337 333 326 320 314 310 307 306 302 297 290 284 282 282 278 246 206 254 280 275 280 259 239 246 246 240 235 233 232 230 246 272 254 239 235 229 226 239 251 243 242 266 251 227 234 221 220 222 204 216 219 209 220 230 221 214 209 214 212 195 212 230 217 225 229 220 208 193 202 218 221 217 215 215 212 201 198 199 187
341 341 340 340 339 337 335 335 336 338 337 330 322 314 313 311 304 300 296 286 285 285 265 266 264 187 244 273 281 280 249 235 245 242 231 226 228 229 225 237 272 259 237 228 215 198 199 201 213 228 242 248 220 205 203 205 205 199 212 225 222 219 218 219 219 204 206 212 207 211 221 231 242 236 230 224 205 200 208 218 220 215 214 213 210 203 202 197
342 340 340 339 338 336 334 335 335 337 338 332 323 317 318 313 302 293 288 281 284 280 256 258 298 276 244 253 279 291 271 260 250 240 231 220 219 217 208 206 259 263 240 224 204 188 179 174 201 211 209 228 222 204 205 201 196 198 202 215 229 225 220 221 216 198 200 209 213 214 217 223 240 253 248 239 224 212 204 208 221 221 217 213 211 212 207 202
341 340 340 337 336 334 333 335 334 334 335 331 327 326 319 305 289 274 278 292 262 252 263 220 179 221 271 223 249 312 320 306 272 245 236 216 208 203 193 184 197 264 240 217 195 186 173 164 197 211 205 209 213 208 209 208 198 198 204 212 219 224 231 228 218 204 203 208 211 216 223 216 217 233 249 254 249 239 214 201 213 219 218 217 211 213 213 210
343 342 340 337 334 332 331 332 330 331 333 330 328 330 322 311 300 289 330 292 236 249 278 266 208 236 279 265 241 317 344 336 309 260 251 221 201 192 178 157 164 235 241 219 195 180 176 182 195 212 213 208 211 216 217 219 218 212 210 215 218 222 233 229 229 213 192 205 214 212 223 223 214 215 226 238 248 250 227 205 211 213 213 220 217 212 212 215
343 342 340 338 334 331 330 329 327 330 332 329 327 327 332 353 346 333 329 274 242 242 256 264 246 244 262 275 287 1 50 1 328 279 273 248 204 195 174 156 189 216 226 236 229 183 184 196 199 209 219 217 214 221 228 228 230 231 222 220 221 222 230 224 226 213 179 198 220 210 219 226 222 218 215 220 229 239 232 211 214 216 216 221 220 218 213 214
342 340 340 337 333 332 330 326 326 331 335 336 330 321 331 348 340 314 298 279 265 248 245 252 252 253 255 264 272 247 120 273 283 276 266 241 218 215 178 164 197 210 202 232 251 198 194 205 204 203 212 225 222 218 226 231 231 234 230 231 230 216 223 224 224 222 187 192 216 210 221 228 225 226 225 221 220 225 228 222 218 214 219 224 221 221 217 215
339 338 339 337 333 332 329 324 326 335 343 339 327 322 330 327 319 306 262 272 281 257 240 237 239 247 244 251 252 224 220 237 245 258 189 150 210 232 209 181 195 210 198 210 231 210 201 205 204 204 203 215 227 222 220 228 234 235 227 231 236 212 214 217 215 219 189 178 201 216 236 236 226 227 225 228 230 223 222 227 227 218 216 220 221 222 219 218
338 338 337 337 334 333 330 324 326 347 346 333 325 335 338 322 315 317 275 263 279 255 235 230 225 233 238 241 224 210 230 235 239 235 160 161 186 230 235 211 195 213 211 206 218 231 246 233 207 208 208 209 221 225 221 224 229 233 230 233 236 218 221 224 216 224 205 195 186 175 268 251 224 233 228 223 232 228 222 225 230 228 223 218 215 216 218 218
338 337 336 338 336 334 330 324 328 350 336 328 338 351 344 331 321 320 306 273 275 264 241 225 210 233 256 232 196 192 230 237 239 217 158 171 179 141 247 234 204 220 218 210 214 227 251 259 240 219 215 211 215 220 223 224 225 230 228 232 244 239 230 230 235 239 227 222 185 156 244 250 206 225 236 225 234 233 224 222 225 226 227 225 216 211 212 213
335 335 336 337 333 332 332 324 332 334 324 327 7 351 339 335 328 319 311 277 271 300 51 64 217 295 314 230 183 175 251 253 228 201 174 172 163 133 246 246 226 230 221 214 217 224 235 238 245 243 230 216 215 218 218 219 230 234 217 217 235 253 256 240 234 232 221 230 198 173 223 252 211 212 224 221 236 243 234 227 224 219 221 223 220 212 206 208
333 332 332 332 331 333 330 309 314 318 308 332 351 342 335 333 325 318 307 264 278 318 36 11 293 309 339 304 205 171 218 305 201 190 178 163 141 107 214 229 256 249 226 206 220 205 201 211 219 241 250 231 218 218 210 211 225 233 219 210 215 230 249 249 239 241 238 244 246 219 218 249 248 219 213 212 221 233 235 233 228 221 221 221 218 215 207 207
332 329 328 328 328 327 315 296 300 299 288 314 327 326 328 327 311 305 310 271 296 337 340 356 336 292 301 350 252 205 263 7 137 234 181 157 137 107 202 229 239 265 271 225 232 205 185 208 213 220 237 239 231 227 205 206 225 228 229 257 223 215 230 242 248 255 267 269 248 231 198 241 252 222 213 219 220 226 226 228 230 226 224 222 218 217 213 212
333 329 326 326 325 322 311 295 287 286 291 299 307 313 317 315 302 282 275 283 308 4 353 356 338 297 245 52 219 240 277 304 284 310 180 161 160 152 199 228 228 250 265 236 248 257 222 226 225 218 225 229 239 240 215 205 222 221 181 349 309 246 227 232 239 248 258 252 237 220 199 234 257 221 205 222 227 230 225 222 227 225 223 222 216 216 217 216
331 328 326 325 324 321 315 302 290 299 303 293 295 313 318 301 295 258 260 278 6 327 250 324 347 340 322 203 237 238 255 269 266 21 70 153 222 237 212 195 203 241 262 248 252 267 279 314 7 224 219 235 265 261 247 225 217 205 132 131 261 308 53 304 281 254 235 240 231 219 212 231 256 231 204 218 221 222 225 223 225 222 219 217 213 212 215 217
330 327 325 324 320 315 308 294 305 336 336 314 301 317 327 286 244 272 265 157 56 292 268 35 354 351 330 305 287 251 248 265 252 158 128 344 235 245 236 165 98 97 266 278 265 257 260 265 276 209 184 172 347 301 280 268 234 202 144 174 213 180 63 13 336 129 220 234 220 215 217 227 247 235 198 217 217 211 220 223 225 225 219 214 207 206 211 215
329 326 327 326 316 306 288 273 300 325 326 329 333 300 262 240 226 246 263 8 2 302 27 16 347 8 348 322 303 300 303 287 265 226 212 222 212 206 213 201 156 187 244 247 245 245 244 235 230 222 179 160 123 327 284 293 272 225 186 178 198 194 182 213 221 216 229 236 214 209 212 222 247 249 219 223 223 212 218 219 220 222 219 216 204 200 206 206
329 328 331 330 315 296 282 278 292 304 303 328 322 276 254 266 262 194 240 309 321 304 346 344 328 339 341 308 297 311 323 298 291 288 234 227 244 218 214 218 205 228 257 233 239 249 250 234 212 216 212 162 155 167 233 241 228 218 203 183 187 192 205 213 216 223 231 234 217 202 204 221 251 250 218 227 239 236 236 243 234 218 208 208 201 194 192 185
330 331 331 325 315 299 294 287 281 274 239 203 225 207 262 258 270 116 263 310 308 301 318 332 322 315 249 247 229 114 209 223 325 328 337 272 260 237 220 225 220 234 278 254 253 239 245 253 197 192 195 162 176 196 205 218 232 219 212 200 195 194 203 211 212 216 230 242 221 194 189 205 234 228 188 215 230 236 247 257 265 252 213 196 188 180 171 171
331 333 328 322 332 332 322 301 254 199 158 174 221 220 235 246 289 321 337 351 336 321 331 319 299 292 272 250 175 111 11 314 84 337 293 255 251 256 245 223 204 207 223 233 246 215 239 267 202 191 192 166 181 198 191 208 258 237 227 219 208 201 207 221 222 206 219 247 223 197 212 228 247 270 248 220 209 210 228 234 222 230 230 190 175 175 173 172
332 336 330 328 355 350 338 333 179 168 169 215 237 232 245 261 291 319 343 351 338 330 331 319 301 295 315 315 105 91 57 305 339 322 262 255 247 242 253 263 212 198 203 214 239 226 235 262 209 195 210 187 186 190 179 185 209 220 229 226 220 216 214 231 236 199 204 240 214 191 229 242 259 269 248 244 247 212 220 220 204 206 202 188 187 186 183 181
333 333 322 321 346 339 327 323 163 164 178 235 234 253 259 262 285 317 331 339 332 325 332 328 334 358 331 327 1 45 87 252 337 355 316 311 258 206 224 270 255 212 206 212 249 253 239 267 264 210 229 219 200 197 190 188 183 170 205 215 226 249 256 238 243 216 213 238 219 202 225 229 235 245 213 222 241 243 236 222 206 206 196 191 197 191 188 190
327 320 300 302 345 343 329 175 153 151 133 220 251 275 245 224 331 338 335 340 324 315 330 309 317 8 1 339 337 357 25 16 33 32 313 314 297 142 169 270 266 241 222 212 234 247 195 267 272 222 215 240 232 212 211 201 195 196 212 196 203 240 222 192 224 222 216 232 232 221 230 231 227 231 195 205 221 229 232 227 215 211 200 193 197 194 196 203
328 317 288 45 1 349 15 151 130 130 225 218 259 273 116 294 302 323 340 348 327 310 313 294 321 10 355 352 330 332 344 329 360 20 311 329 321 313 350 175 292 311 303 227 244 270 175 238 265 220 184 220 51 138 222 221 213 259 330 200 160 233 229 209 210 222 220 228 238 230 229 234 233 234 231 224 221 220 223 223 219 215 202 194 198 197 199 209
345 323 92 34 354 343 116 133 115 139 235 245 268 269 55 299 284 315 332 342 329 299 300 314 338 327 316 340 316 310 332 326 330 356 309 82 300 304 320 113 279 312 345 88 244 266 241 216 246 258 67 342 218 170 203 222 217 221 239 205 184 187 252 256 229 233 233 225 230 235 236 236 228 225 229 235 236 224 212 213 216 211 199 196 197 193 200 213
340 313 85 22 353 11 121 130 165 196 231 255 269 266 309 291 287 304 301 298 282 240 249 291 291 282 289 299 296 294 301 305 294 249 245 204 194 281 301 185 279 326 337 237 254 239 224 235 245 250 248 233 228 201 199 221 219 222 226 212 204 203 212 238 232 222 233 235 229 238 249 244 217 230 237 234 237 232 213 208 211 207 200 197 191 188 199 211
315 300 353 354 343 358 142 207 232 210 248 271 273 225 264 285 287 293 295 303 292 247 224 260 272 273 272 262 274 293 293 286 270 247 246 225 204 221 253 251 317 20 359 289 285 195 158 253 261 256 248 244 247 223 168 149 161 216 231 227 229 219 209 221 225 208 212 229 234 247 256 245 215 286 297 253 231 230 221 215 206 200 197 187 181 188 197 207
316 305 306 319 331 100 208 255 246 223 234 287 11 255 273 285 281 304 314 308 286 270 255 253 256 258 264 277 286 297 311 286 247 239 246 255 238 237 259 274 290 357 42 302 293 124 127 214 271 274 270 259 260 242 151 119 130 228 232 228 246 244 235 236 236 235 231 221 222 242 249 239 235 278 309 331 31 46 6 243 191 177 181 178 178 184 192 202
306 292 288 295 322 134 237 280 303 284 287 353 350 302 293 281 262 280 287 277 268 276 286 282 274 266 291 322 309 283 301 267 241 253 261 261 256 253 260 261 225 147 144 259 305 39 76 290 344 318 297 277 262 242 192 81 302 254 233 215 220 236 255 267 270 262 253 222 220 240 243 237 247 258 268 303 343 21 25 15 54 138 158 167 165 174 191 199
301 266 231 252 190 150 248 307 329 308 320 332 317 300 291 272 250 246 249 268 270 262 275 274 278 291 296 297 279 241 233 229 243 284 277 263 267 275 273 255 211 197 212 241 322 52 275 274 71 307 281 275 268 257 280 310 290 272 258 235 223 218 231 250 262 251 242 212 222 239 248 262 278 260 250 255 267 275 349 18 357 15 132 152 148 164 189 196
326 289 297 272 191 174 243 250 338 308 318 326 316 312 302 296 294 266 240 258 262 254 264 267 275 287 276 270 270 244 232 230 233 259 273 278 284 288 304 299 274 260 254 212 126 108 259 239 188 215 243 257 266 275 290 305 304 292 291 276 253 230 221 221 231 243 246 242 240 235 233 255 266 266 264 259 248 246 232 215 251 270 267 248 184 172 186 193
307 310 1 341 294 289 238 126 41 356 329 332 333 329 314 310 315 311 201 212 267 287 282 254 253 266 261 270 282 261 240 232 231 250 264 269 276 283 293 290 274 269 265 207 146 143 233 250 228 224 234 244 252 262 274 287 291 285 288 288 283 268 243 228 230 238 238 247 250 238 230 241 248 253 262 268 262 249 231 215 215 219 228 238 235 215 202 198
321 329 39 9 285 314 322 345 355 336 318 320 308 288 297 297 299 303 275 241 271 308 278 245 240 255 264 275 285 284 280 259 239 248 258 261 271 281 282 269 254 253 250 212 160 156 196 254 248 236 243 248 247 252 259 265 270 273 277 278 278 279 268 251 248 249 243 243 253 256 251 249 251 263 270 275 284 287 279 260 245 236 226 220 224 220 203 191
345 326 45 20 296 311 311 302 309 309 302 305 290 273 283 285 290 310 334 323 297 259 241 254 259 270 276 280 287 288 290 287 267 254 262 273 276 283 291 281 260 247 233 207 195 168 161 248 245 231 248 256 251 252 254 256 259 261 263 266 266 265 263 260 260 259 256 256 262 264 261 255 251 262 269 271 276 286 294 295 290 281 262 234 222 212 198 192
340 312 353 347 301 289 292 285 288 294 292 287 276 273 283 290 319 348 351 323 305 303 287 285 297 303 297 295 300 287 280 288 285 283 294 293 284 282 280 273 275 289 281 235 257 228 176 241 246 218 250 262 254 251 249 245 249 255 256 259 261 262 263 260 259 258 260 263 263 261 261 260 250 248 255 259 260 266 273 278 280 280 276 266 242 215 203 200
320 284 231 302 301 297 296 289 288 296 290 271 275 309 318 330 353 352 329 287 272 282 313 327 327 327 317 308 301 289 286 292 290 293 301 300 294 293 279 264 289 318 314 242 256 221 198 252 279 189 254 267 259 251 251 247 246 252 256 256 254 256 257 251 244 241 243 249 254 254 255 260 258 249 249 253 250 248 251 256 261 265 268 276 269 237 215 209
324 310 177 237 297 287 288 297 289 280 273 302 354 4 348 332 344 342 320 293 286 308 339 342 330 324 313 300 295 296 307 310 302 300 299 289 284 280 272 263 260 261 253 240 237 202 204 250 281 218 248 270 263 255 259 264 258 251 248 243 241 241 243 246 246 241 238 238 243 247 245 251 259 257 252 252 251 248 245 245 249 253 255 256 253 242 225 218
Height
829 828 827 826 825 824 822 821 820 819 818 816 815 814 813 812 810 810 809 808 808 807 807 806 806 806 805 804 804 803 802 799 798 796 792 790 791 792 791 791 790 791 791 790 789 788 786 784 783 782 783 782 782 782 783 781 781 789 795 801 800 792 785 774 768 765 763 764 764 761 758 762 768 765 761 761 764 766 768 767 766 767 768 771 774 776 779 782
829 827 826 825 824 822 821 820 819 818 816 815 814 813 812 811 809 808 808 807 807 806 805 805 805 804 804 804 803 802 801 798 796 791 786 787 789 789 789 789 789 789 790 790 788 788 786 783 781 780 780 781 780 779 782 779 781 791 797 801 795 784 775 764 760 757 755 759 760 759 757 759 762 763 761 767 771 768 771 771 768 772 774 774 774 777 779 781
828 827 825 824 823 821 820 819 818 817 815 814 813 812 811 809 809 807 806 806 805 805 804 804 804 803 803 802 802 802 800 797 793 785 781 783 783 784 785 786 785 787 789 788 787 787 785 783 781 780 780 780 777 776 779 776 779 786 793 801 789 775 769 761 756 753 750 751 755 759 757 758 758 758 762 767 771 770 772 771 769 773 775 775 775 776 778 780
827 826 824 823 822 820 819 818 817 816 814 813 812 811 810 808 807 806 805 804 804 804 803 803 802 802 802 801 802 801 800 799 789 779 779 778 777 778 779 780 782 784 786 787 786 786 784 783 781 781 780 779 775 774 775 773 775 779 784 791 781 771 770 761 754 751 749 748 752 757 759 761 757 756 761 765 770 772 768 764 764 767 768 772 773 774 776 778
826 825 823 822 821 819 818 817 816 814 813 812 811 809 808 807 806 805 804 803 802 802 801 801 801 801 801 800 802 800 803 801 782 774 777 775 774 775 776 778 780 783 785 786 785 785 784 783 781 781 781 778 775 773 772 767 769 775 775 776 773 769 770 761 754 753 753 752 752 756 761 761 756 757 760 763 770 769 761 755 755 756 759 764 768 771 774 776
826 824 823 821 820 819 817 816 815 813 812 811 810 808 807 806 805 804 803 802 801 800 800 800 799 800 800 800 801 800 803 796 774 771 776 773 774 774 775 777 778 782 784 784 784 784 783 781 782 782 780 778 775 772 769 764 765 773 772 768 768 767 768 762 756 758 759 760 759 756 756 755 758 762 759 759 763 759 753 749 749 750 752 758 763 768 771 774
825 823 822 821 819 818 816 815 814 812 811 810 808 807 806 804 803 802 801 800 799 799 799 798 798 798 799 799 799 798 799 787 770 772 774 774 776 773 774 775 776 780 782 782 782 782 780 780 781 780 779 778 774 769 766 763 762 769 770 765 763 762 763 760 758 761 762 764 761 754 754 756 761 763 758 759 757 752 751 748 749 750 752 757 763 766 769 770
824 823 821 820 818 817 815 814 813 811 810 808 807 806 805 803 802 800 799 799 797 797 797 797 797 797 798 798 797 796 791 780 772 774 775 775 776 775 774 774 775 778 779 780 780 779 778 778 777 776 778 776 771 768 765 765 763 764 765 763 760 759 757 755 759 763 762 762 759 756 759 758 757 757 757 758 753 750 750 750 751 753 755 758 762 765 767 768
823 822 820 819 817 816 815 813 812 810 809 807 806 804 803 801 800 799 798 797 796 796 795 795 795 795 797 796 796 793 781 774 775 776 777 776 776 776 775 775 776 776 777 779 778 779 777 775 775 773 775 773 768 766 763 767 766 760 761 761 759 758 755 754 757 758 758 759 760 762 764 760 754 755 759 754 750 749 749 752 753 755 758 759 761 763 764 766
823 821 819 818 816 815 813 812 811 809 807 806 804 802 801 800 798 797 795 795 794 794 793 794 794 794 795 793 795 790 774 773 777 775 776 776 775 776 776 776 776 776 777 778 777 778 775 774 773 771 773 771 768 764 761 763 760 756 758 759 757 757 755 753 754 753 753 755 760 765 766 762 755 758 764 754 747 748 750 753 754 755 759 758 759 760 761 764
822 820 819 817 816 814 813 811 809 807 806 804 802 801 799 798 797 795 793 792 792 792 792 792 792 793 792 792 793 784 771 774 776 773 775 775 775 776 775 776 776 776 776 776 777 776 775 774 772 773 774 770 768 765 759 755 753 753 757 759 757 756 756 754 753 752 753 755 756 761 765 762 757 760 762 754 748 749 751 753 753 755 757 757 758 758 759 761
822 820 818 817 815 814 812 810 808 807 805 803 800 798 797 796 794 793 791 790 789 789 789 789 791 791 790 790 786 776 771 773 774 774 774 773 774 775 775 775 775 776 776 775 776 775 776 774 774 777 774 768 769 769 761 753 752 752 755 763 762 759 759 755 753 752 754 756 752 758 768 765 760 759 756 751 749 749 751 752 752 754 755 755 756 756 757 758
821 820 818 816 815 813 812 809 807 805 803 801 798 796 794 793 792 791 789 788 788 787 787 787 788 788 791 788 777 772 773 773 773 774 774 774 774 773 774 775 774 775 775 774 775 775 776 774 775 776 772 771 770 765 760 753 753 755 755 763 768 768 764 753 752 752 752 754 750 760 775 768 758 756 752 749 748 750 752 751 751 752 753 754 754 755 756 756
821 820 818 816 814 812 811 808 807 804 802 799 796 794 792 791 791 789 788 787 786 786 786 786 787 788 791 783 771 772 774 773 774 773 773 774 773 773 773 774 774 774 774 774 774 774 775 774 775 775 772 772 768 763 762 758 755 758 760 764 770 774 765 750 750 752 753 752 747 760 774 766 755 752 748 747 747 751 753 751 750 750 750 752 752 753 754 754
821 820 818 816 814 812 810 808 805 803 800 798 795 793 791 790 789 787 787 786 785 786 785 785 785 786 788 778 769 770 770 771 771 769 771 772 772 772 772 773 773 773 773 773 773 774 775 775 775 777 773 768 767 770 771 766 759 758 767 772 770 770 763 750 746 748 752 750 747 759 769 763 755 748 744 743 745 750 753 751 750 749 749 749 750 750 752 751
821 819 817 815 813 811 809 807 804 802 798 795 793 791 789 788 787 786 786 784 785 785 784 785 784 785 787 776 768 768 768 768 766 766 769 769 769 770 770 772 772 771 771 771 772 773 774 775 775 775 773 769 769 774 774 772 767 761 766 771 766 766 765 756 746 741 746 749 748 754 761 761 754 746 741 740 742 747 750 750 748 748 748 747 748 748 749 750
821 819 817 815 813 811 809 806 804 801 797 794 791 789 787 786 785 785 784 784 784 783 784 784 782 785 782 771 768 768 766 766 765 765 765 766 768 768 769 771 771 770 769 770 772 772 773 775 775 774 774 772 769 771 777 778 774 766 764 766 760 759 762 759 749 739 740 746 748 749 755 756 750 744 741 738 739 743 747 748 747 746 746 745 746 746 747 748
821 819 817 815 812 810 808 805 803 800 797 793 790 788 787 786 785 785 784 783 783 784 785 782 784 788 778 767 769 767 764 765 764 764 764 764 765 766 768 770 770 770 770 771 770 770 773 773 775 775 774 774 769 768 774 770 764 764 764 765 761 756 755 754 749 739 737 743 747 749 753 754 750 745 742 738 737 741 744 744 744 744 744 744 743 744 745 745
820 818 816 814 811 809 806 804 802 799 796 793 790 788 785 784 784 784 784 785 784 784 782 779 781 782 771 765 768 765 763 764 763 763 762 763 764 765 766 767 769 771 773 774 771 768 770 772 776 777 773 771 767 762 761 754 751 755 756 758 760 757 751 745 741 735 733 741 746 748 751 751 751 748 744 740 737 738 740 740 742 742 741 741 742 742 742 743
820 818 816 813 810 808 805 803 801 798 796 793 790 788 785 785 786 785 785 785 783 780 775 774 775 771 765 764 764 763 763 764 764 763 762 761 762 764 765 766 770 773 775 774 770 764 765 772 775 774 768 763 761 757 753 750 747 747 748 750 752 754 750 741 737 732 729 739 744 743 747 747 746 745 743 741 739 739 738 738 740 740 740 740 740 740 740 741
820 818 815 813 810 807 805 802 800 798 796 794 792 791 790 791 792 791 789 783 777 775 772 770 770 768 764 763 762 762 763 765 766 764 763 762 761 763 764 766 771 774 774 772 768 763 763 769 768 765 762 758 757 756 754 752 748 744 745 748 748 748 746 738 735 731 728 739 743 739 744 745 741 740 739 738 739 739 737 738 739 739 739 738 738 738 738 737
820 818 815 813 810 807 804 801 799 797 795 794 793 793 792 792 793 792 791 785 774 770 769 767 766 765 763 762 762 763 764 766 767 764 762 763 765 765 762 763 769 770 769 772 771 768 766 765 758 755 757 756 755 754 754 753 749 747 746 748 747 743 741 738 732 729 730 740 744 740 743 743 737 735 734 733 735 735 734 734 736 736 738 737 736 737 736 736
820 817 815 813 809 807 804 801 798 796 796 795 793 793 792 791 791 789 791 788 775 765 763 762 762 762 761 761 760 762 765 765 764 761 760 763 766 767 764 763 766 766 767 772 773 770 765 758 751 749 752 755 754 751 752 753 750 749 748 749 748 740 742 746 737 730 732 739 742 741 743 742 736 733 731 730 729 730 731 730 731 732 734 735 734 734 735 735
819 817 815 812 810 807 803 800 798 796 796 795 793 793 791 790 790 789 788 785 773 761 757 756 756 758 757 758 758 760 762 760 758 757 757 761 765 767 767 763 763 764 765 768 772 772 763 752 747 748 749 751 753 751 751 754 753 749 747 748 747 741 742 744 738 732 734 737 737 742 752 747 739 738 733 729 728 728 728 728 729 729 729 731 731 732 732 732
818 816 814 812 810 806 803 800 797 796 796 794 793 792 791 791 789 789 788 784 773 759 753 752 752 755 754 755 756 757 759 757 753 753 754 757 761 765 766 762 762 764 761 762 768 772 765 754 750 750 747 747 751 752 750 751 753 751 746 744 744 742 741 740 738 738 745 748 738 743 762 754 739 740 738 731 730 728 726 726 727 727 727 729 729 729 730 729
817 815 813 812 809 806 803 799 797 797 795 793 793 792 792 791 789 789 789 788 777 759 755 756 753 756 756 755 755 757 761 755 746 748 751 752 756 761 764 763 762 760 756 759 764 764 759 753 754 754 749 747 750 750 747 746 753 753 743 740 743 743 743 742 741 744 753 754 738 738 759 757 741 740 737 733 734 730 726 724 723 724 725 726 727 727 727 728
816 814 813 811 809 807 804 800 799 798 795 793 792 792 792 790 790 789 790 791 778 759 759 762 758 760 760 756 756 759 764 753 742 745 748 750 754 759 765 764 764 759 753 760 763 757 752 751 754 757 756 754 750 747 744 743 751 750 738 736 742 745 747 745 744 747 748 747 741 736 747 755 750 741 731 730 735 731 727 724 721 721 722 723 724 724 725 726
815 813 811 810 808 807 805 802 800 797 796 794 792 793 792 790 790 788 793 796 778 761 764 764 761 762 760 758 758 757 756 748 747 750 747 749 754 759 766 763 763 763 757 763 762 746 743 749 750 751 757 760 752 742 739 741 747 744 736 737 739 740 744 744 747 751 747 750 755 746 744 756 753 738 729 728 732 732 728 724 720 718 719 720 721 721 722 722
814 812 810 808 806 804 803 801 799 796 795 794 793 793 791 791 791 790 797 797 775 764 769 766 763 762 759 761 761 758 754 748 751 754 750 751 753 755 762 759 759 764 762 766 764 749 743 748 748 747 751 755 750 741 736 739 742 738 737 739 739 739 742 745 749 752 753 759 762 750 746 757 751 736 733 731 730 729 724 719 717 715 716 716 717 718 718 719
813 810 808 806 803 802 801 799 798 796 794 793 794 793 791 792 792 795 802 794 774 766 767 766 768 768 766 766 764 761 759 753 751 754 754 755 756 755 755 754 757 762 761 763 765 758 750 748 750 752 751 749 749 744 739 737 735 735 741 744 744 747 748 752 755 759 763 763 759 748 743 753 749 732 729 728 723 720 718 715 713 710 712 712 712 713 714 715
811 808 806 804 802 801 800 798 796 795 794 794 793 793 794 794 794 799 797 783 772 768 764 766 770 769 770 771 768 762 760 756 751 754 760 760 760 761 759 757 760 765 766 764 761 755 752 752 752 751 751 752 753 750 744 740 735 736 745 748 750 756 760 765 768 771 773 763 752 745 743 750 746 727 719 717 711 711 711 710 709 708 708 707 707 708 709 710
809 806 803 802 801 800 799 797 795 795 795 794 794 794 795 796 796 797 786 771 770 771 766 767 768 768 771 772 769 766 765 762 754 753 759 760 760 762 762 760 761 766 769 763 757 752 749 749 747 745 747 750 755 756 751 748 747 745 746 750 758 764 768 773 773 771 769 759 747 743 745 749 737 718 714 712 705 704 704 703 703 703 703 702 702 704 704 706
807 803 801 800 799 799 798 796 796 796 795 794 795 795 796 799 795 786 778 772 773 772 766 766 765 765 770 768 767 768 769 768 761 756 759 759 759 759 758 755 755 761 762 757 756 755 749 742 740 744 746 745 750 757 756 752 753 751 744 747 757 760 765 770 767 763 759 751 743 741 744 746 733 713 708 708 703 700 699 698 698 697 697 698 698 699 700 702
805 802 800 799 798 798 797 796 796 795 795 795 797 797 800 803 792 779 777 775 773 770 766 767 766 765 766 764 764 765 765 766 765 764 765 765 764 761 757 755 755 757 759 759 757 755 755 746 737 739 741 741 744 748 750 748 748 746 735 736 745 746 751 757 754 755 754 746 742 743 744 740 726 708 698 698 699 699 697 695 696 695 694 694 694 696 698 699
804 801 799 798 798 797 796 796 795 795 797 796 797 800 803 801 790 782 781 778 776 774 770 769 767 766 765 760 762 765 765 765 764 766 767 766 766 762 756 752 753 755 761 765 756 750 756 746 730 728 729 733 738 736 741 748 750 746 735 736 740 734 734 739 740 741 742 744 744 743 739 724 706 696 692 692 693 693 693 692 695 696 693 694 695 695 697 698
803 800 799 798 798 797 796 796 796 796 798 797 799 801 799 793 788 786 783 780 783 780 777 773 766 767 768 760 760 767 770 769 767 767 765 762 762 762 757 750 748 753 757 760 752 746 753 743 725 727 727 726 732 731 734 744 747 747 746 742 734 726 727 733 735 731 735 743 739 731 730 720 708 700 693 693 694 691 691 691 692 694 693 694 696 695 696 697
803 801 799 798 798 797 797 796 796 797 798 799 801 798 794 788 785 786 782 781 784 780 782 784 772 768 772 767 762 766 772 772 770 771 768 763 758 756 757 751 746 749 750 753 750 743 748 744 726 729 734 726 725 726 728 731 735 744 749 740 730 731 736 741 740 734 737 744 732 720 721 721 720 709 692 694 700 695 692 690 690 692 692 694 695 695 696 696
804 801 799 799 799 797 797 797 797 798 799 802 801 794 791 789 785 783 782 783 784 781 785 789 777 770 775 777 769 765 770 772 772 774 773 767 760 753 756 755 746 744 743 748 751 741 745 750 730 723 733 730 728 734 732 726 727 735 737 731 735 743 743 743 744 737 738 741 730 721 718 712 711 705 693 696 699 694 691 690 689 690 690 691 692 693 694 694
804 801 798 799 799 798 797 798 798 799 800 802 799 793 792 792 786 783 783 784 785 785 785 785 780 777 778 779 776 769 769 770 770 774 773 772 768 756 755 758 753 749 747 752 757 746 745 754 739 723 727 731 735 744 741 731 731 738 737 732 738 744 740 736 735 729 730 735 730 724 718 707 698 693 691 692 689 687 689 688 687 686 685 687 688 689 692 693
805 803 800 799 799 798 798 798 799 801 802 799 795 793 794 792 787 783 783 784 787 787 786 783 783 784 780 778 779 774 770 770 770 773 773 772 770 758 753 757 756 753 753 756 760 755 750 754 748 733 731 734 737 740 737 731 733 740 743 740 740 743 744 741 731 722 723 728 727 724 716 702 688 681 682 683 679 679 681 682 682 681 680 682 683 685 689 689
806 805 801 799 800 798 798 800 801 801 800 796 792 792 792 790 788 786 783 783 785 785 784 784 784 785 782 781 780 774 772 772 771 772 772 769 768 762 754 754 753 752 754 755 757 758 756 754 750 742 737 737 732 727 726 728 731 735 736 734 732 732 737 741 735 725 722 722 719 719 714 698 681 674 674 674 672 672 673 674 676 675 675 677 678 681 684 685
807 804 800 799 800 799 799 801 799 798 798 795 792 791 790 788 789 787 783 783 784 782 782 783 783 782 781 780 778 774 774 774 771 771 770 764 763 760 752 749 751 751 755 755 752 753 757 757 755 746 738 732 725 720 724 730 734 737 736 732 730 728 728 732 730 722 720 720 714 714 713 697 679 672 672 670 668 668 668 668 669 670 671 672 675 678 680 681
809 805 800 799 799 799 801 801 796 794 795 792 790 790 789 788 789 787 785 785 785 783 782 781 781 781 779 776 776 776 777 775 770 767 765 761 757 754 749 748 749 751 755 755 750 752 758 759 757 749 736 727 722 721 726 730 733 736 735 734 736 734 728 725 721 715 716 717 715 718 716 699 681 673 672 670 667 667 667 666 666 667 667 669 672 674 677 679
811 807 801 799 799 800 802 800 796 794 792 791 792 792 790 788 788 788 788 787 785 783 783 781 779 779 777 776 777 778 779 778 771 763 762 760 754 749 747 747 748 752 755 753 750 756 760 757 759 762 753 739 731 729 731 733 733 731 729 727 730 734 734 731 726 723 721 716 716 721 716 698 684 676 673 672 670 669 669 668 667 667 667 668 670 672 675 677
811 806 801 799 799 800 801 799 800 799 795 796 796 793 791 789 786 786 786 785 783 782 783 781 777 777 777 777 778 778 778 779 775 767 762 759 753 748 747 747 747 749 750 749 750 758 761 757 761 771 770 757 746 740 737 737 736 732 726 723 723 726 730 733 731 729 724 716 714 719 713 698 686 679 676 676 674 673 672 671 669 669 669 668 669 672 674 676
814 808 803 801 799 800 800 797 800 802 800 801 799 793 792 790 785 782 782 784 782 780 781 779 776 777 777 775 777 777 776 776 776 772 765 762 758 751 748 748 748 747 747 749 752 757 760 760 759 764 766 760 752 745 739 741 745 741 733 728 726 722 722 726 727 723 719 715 711 708 707 704 696 687 682 678 677 676 674 673 671 670 670 670 670 672 674 675
816 812 810 810 805 800 799 798 802 805 803 805 803 796 794 794 789 785 783 782 781 780 781 778 776 778 777 775 777 776 774 774 775 773 770 766 761 755 752 750 749 746 745 747 750 754 760 760 755 755 756 752 749 746 741 743 747 744 737 732 730 726 724 725 723 715 715 718 711 699 699 704 699 691 686 682 678 676 674 673 672 671 671 671 671 672 674 676
816 813 814 817 813 806 804 804 806 807 805 804 802 797 796 796 793 790 786 782 781 782 783 780 777 777 775 774 777 777 774 773 772 770 768 765 761 758 754 749 747 745 744 747 747 750 757 756 748 749 750 744 743 743 740 741 742 739 735 733 730 728 728 727 723 715 714 717 709 699 699 702 697 691 689 686 682 679 675 673 671 671 671 671 671 672 673 675
818 817 816 818 817 813 812 809 807 807 805 804 801 798 796 795 792 791 789 787 785 783 784 784 779 775 773 772 775 778 776 774 772 768 766 764 761 760 757 751 746 742 741 746 747 747 752 750 743 745 747 741 739 738 735 736 737 733 731 729 727 725 724 723 721 717 716 715 710 705 701 696 695 693 689 686 685 682 678 675 672 671 671 671 671 672 672 673
823 823 821 821 820 815 813 810 807 806 804 802 801 797 793 792 794 796 796 794 793 787 784 784 782 778 777 775 776 777 774 771 771 767 764 764 761 760 759 754 748 744 744 748 749 750 751 745 737 740 745 740 735 733 731 732 732 729 726 724 723 723 722 720 718 715 716 716 713 710 704 694 689 688 684 681 682 682 680 678 675 672 670 669 671 671 670 670
824 824 823 826 823 816 813 809 806 807 806 802 800 798 796 797 801 803 799 793 792 789 785 787 787 783 780 777 776 773 768 766 766 763 761 763 762 760 758 753 749 751 751 750 750 751 753 747 737 740 748 741 730 728 727 725 726 727 725 722 721 721 719 716 711 707 707 707 707 707 705 696 686 682 680 677 676 677 677 675 674 673 671 669 669 669 669 668
824 823 822 826 825 818 814 811 808 809 806 800 800 803 805 806 805 806 803 792 786 787 788 789 791 788 784 780 775 770 766 765 764 761 760 760 758 756 755 751 750 752 751 749 747 747 750 750 743 743 748 739 726 724 724 723 729 730 721 714 712 712 710 707 704 699 697 697 699 698 695 688 680 677 677 674 672 672 672 671 671 671 669 667 666 666 665 663